DECAYED

STARLINK-1669, 47624 (Decayed)

Orbit data source: Space-Track

STARLINK-1669, 47624 was a payload satellite owned by SpaceX/Seattle (US) in LEO that was launched on Tue, 16 Feb 2021 UTC via an FALCON 9 launch vehicle from the Air Force Eastern Test Range (AFETR). Payload-class satellites include a variety of spacecraft equipped with specific instruments for various scientific and technological missions. These include communications satellites like Starlink; space stations such as the ISS; scientific satellites like the Hubble; Earth observation satellites from companies like Planet Labs, Umbra, and HawkEye 360; GPS; miniature CubeSats for education and research; and military/defense satellites.

Not visible in the next 10 days
Identifier
47624, 2021-012E
Orbit
Decayed
Country
Flag of USUS
Related business
Manufacturer
SpaceX/Seattle
Mission
Decayed Commercial Communications
Bus & Motor
STARLINK, Unknown motor
Mass
260 kg wet, ~248 kg dry
Launch date (UTC)
2021-02-16 (5 years ago)
Launch vehicle
FALCON 9
Launch site
Air Force Eastern Test Range (AFETR)
Object type
Payload
Rocket body
Debris
Shape & HBR
Box + 1 Pan, 10.1 m
Radar Cross Section
13.562 m², Large (>1 m²)

Expand to show TLE details & history
Last TLE update: 2 months ago

TLE from 2 months ago
0 STARLINK-1669
1 47624U 21012E   26114.89445721  .13358059  12536-4  35260-3 0  9997
2 47624  53.0100 115.6370 0004488 283.1636  76.8911 16.45576092288487
Epoch: 2026-04-24T21:28Z
TLE epoch observation values (Epoch: 2026-04-24T21:28:01.102Z)
Latitude
-0.00009°
Longitude
-59.28829°
Altitude
151.275 km
Speed
7.817 km/s
True Right ascension
07h 42m 32s
True Declination
0° 00' 00"
Sunlit
Object was in daylight at epoch
Visualization orbit readout
Latitude
Unknown
Longitude
Unknown
Altitude
Unknown
Speed
Unknown
Apparent Right ascension
Unknown
Apparent Declination
Unknown
Sunlit
N/A
Visualization observer readout
Local Sidereal Time
21:41:25
Azimuth
Unknown
Elevation
Unknown
Doppler factor
Unknown
Orbital elements
Apogee altitude
154.236 km
Perigee altitude
148.375 km
Semi-major axis
6,529.442 km
Eccentricity
0.00045
Inclination
53.01°
RAAN
115.637°
Arg. of periapsis
283.1636°
True anomaly
76.94119°
Mean anomaly
76.8911°
Eccentric anomaly
76.91615°
Mean motion
4.11367 °/min
Orbital period
87.51 mins
BSTAR
0.0003526
Loading maneuver chart data...
Computing Atmospheric mass density...

Documentation

Showing up to 5 results
|